Weather reports worldwide

Advertisment
Rostherne No 2, United Kingdom (3351): temperature & dewpoint: 11.10.2018 05:00:00 - 17.10.2018 05:00:00 (BST)Rostherne No 2, United Kingdom (3351): wind speed & gusts: 11.10.2018 05:00:00 - 17.10.2018 05:00:00 (BST)Rostherne No 2, United Kingdom (3351): wind direction: 11.10.2018 05:00:00 - 17.10.2018 05:00:00 (BST)Rostherne No 2, United Kingdom (3351): reduced air pressure: 11.10.2018 05:00:00 - 17.10.2018 05:00:00 (BST)Rostherne No 2, United Kingdom (3351): visibility: 11.10.2018 05:00:00 - 17.10.2018 05:00:00 (BST)Rostherne No 2, United Kingdom (3351): sunshine duration: 11.10.2018 05:00:00 - 17.10.2018 05:00:00 (BST)Rostherne No 2, United Kingdom (3351): precipitation: 11.10.2018 05:00:00 - 17.10.2018 05:00:00 (BST)
Date & Time tt [°C] td [°C] ff [km/h] ff [kn] fx [km/h] fx [kn] dd ppp [hPa] vv [km] sd [min] rr [mm]
17.10.2018 05:00:00 11,2 10,4 5 3 - - SSW 1015,0 19 0 0,0
17.10.2018 04:00:00 11,5 10,3 8 4 - - SSW 1014,6 29 0 0,0
17.10.2018 03:00:00 11,9 10,0 8 4 - - SSW 1014,5 40 0 0,0
17.10.2018 02:00:00 12,2 10,1 9 5 - - SSW 1014,6 45 0 0,0
17.10.2018 01:00:00 12,1 10,2 9 5 - - S 1014,5 40 - 0,0
17.10.2018 00:00:00 11,8 10,3 11 6 - - S 1014,3 35 0 0,2
16.10.2018 23:00:00 11,8 10,3 15 8 - - S 1014,2 7 0 0,0
16.10.2018 22:00:00 11,9 10,6 13 7 - - S 1014,2 10 0 0,4
16.10.2018 21:00:00 13,6 10,2 11 6 - - SSW 1013,9 27 0 0,0
16.10.2018 20:00:00 13,8 10,9 9 5 - - S 1013,5 50 0 0,0
16.10.2018 19:00:00 13,8 10,7 11 6 - - SSW 1013,4 50 0 0,0
16.10.2018 18:00:00 14,7 11,3 16 9 - - SSW 1013,1 50 6 0,0
16.10.2018 17:00:00 15,4 12,6 9 5 - - S 1013,0 18 0 0,0
16.10.2018 16:00:00 15,6 12,7 11 6 - - SSW 1013,2 15 0 0,0
16.10.2018 15:00:00 15,9 13,1 11 6 - - S 1013,1 14 0 0,0
16.10.2018 14:00:00 15,5 12,8 9 5 - - SSW 1013,3 17 0 0,0
16.10.2018 13:00:00 14,8 12,4 13 7 - - S 1013,3 14 0 0,0
16.10.2018 12:00:00 14,0 11,9 15 8 - - S 1013,6 11 0 0,0
16.10.2018 11:00:00 13,2 11,5 13 7 - - S 1013,9 8 0 0,0
16.10.2018 10:00:00 12,6 11,1 15 8 - - S 1014,0 7 0 0,0
16.10.2018 09:00:00 11,8 10,7 11 6 - - S 1014,2 5 0 0,0
16.10.2018 08:00:00 11,6 10,2 13 7 - - S 1013,8 6 0 0,0
16.10.2018 07:00:00 11,6 10,2 13 7 - - S 1013,5 7 0 0,0
16.10.2018 06:00:00 11,7 10,2 11 6 - - S 1013,9 8 0 0,0
16.10.2018 05:00:00 11,4 10,2 5 3 - - S 1014,0 12 0 0,0
16.10.2018 04:00:00 10,5 9,4 2 1 - - SE 1014,1 15 0 0,0
16.10.2018 03:00:00 10,5 9,3 0 0 - - N 1014,3 11 0 0,0
16.10.2018 02:00:00 10,4 9,1 2 1 - - W 1014,7 18 0 0,0
16.10.2018 01:00:00 10,4 9,1 2 1 - - SSE 1014,9 16 - 0,0
16.10.2018 00:00:00 10,6 8,4 4 2 - - E 1015,4 24 0 0,0
15.10.2018 23:00:00 10,6 8,0 5 3 - - E 1015,4 30 0 0,0
15.10.2018 22:00:00 10,8 7,8 9 5 - - E 1015,7 45 0 0,0
15.10.2018 21:00:00 10,8 7,2 9 5 - - ESE 1015,8 50 0 0,0
15.10.2018 20:00:00 10,8 7,6 13 7 - - SE 1015,5 50 0 0,0
15.10.2018 19:00:00 11,1 8,3 8 4 - - E 1015,5 45 0 0,0
15.10.2018 18:00:00 11,5 8,3 5 3 - - ENE 1015,2 50 0 0,0
15.10.2018 17:00:00 11,8 8,7 11 6 - - ENE 1014,9 27 6 0,0
15.10.2018 16:00:00 12,2 8,7 9 5 - - ENE 1014,8 28 6 0,2
15.10.2018 15:00:00 11,6 8,5 9 5 - - ENE 1014,8 23 0 0,0
15.10.2018 14:00:00 11,6 8,2 11 6 - - NE 1014,5 35 0 0,0
15.10.2018 13:00:00 11,4 7,8 9 5 - - ENE 1014,4 45 0 0,0
15.10.2018 12:00:00 10,9 7,8 8 4 - - NE 1014,5 45 0 0,0
15.10.2018 11:00:00 10,0 7,4 8 4 - - NE 1014,3 26 0 0,0
15.10.2018 10:00:00 9,5 7,1 8 4 - - NE 1014,5 35 0 0,0
15.10.2018 09:00:00 8,5 7,3 8 4 - - N 1014,3 29 0 0,0
15.10.2018 08:00:00 7,8 7,0 5 3 - - N 1013,8 28 0 0,0
15.10.2018 07:00:00 7,2 6,6 8 4 - - NNW 1013,0 45 0 0,0
15.10.2018 06:00:00 6,7 6,6 8 4 - - NNW 1012,8 18 0 0,0
15.10.2018 05:00:00 6,5 6,4 8 4 - - NNW 1012,8 25 0 0,0
15.10.2018 04:00:00 6,0 5,9 5 3 - - NW 1012,8 10 0 0,0
15.10.2018 03:00:00 5,9 5,9 5 3 - - NNW 1012,7 16 0 0,0
15.10.2018 02:00:00 5,6 5,6 5 3 - - NNW 1013,1 10 0 0,0
15.10.2018 01:00:00 3,8 3,7 5 3 - - NW 1012,7 3,0 - 0,0
15.10.2018 00:00:00 3,8 3,6 5 3 - - NNW 1012,5 3,0 0 0,0
14.10.2018 23:00:00 4,0 3,8 4 2 - - N 1012,5 11 0 0,0
14.10.2018 22:00:00 4,0 3,8 2 1 - - S 1012,5 3,0 0 0,0
14.10.2018 21:00:00 4,3 3,9 0 0 - - N 1011,7 0,3 0 0,0
14.10.2018 20:00:00 5,9 5,5 2 1 - - SSE 1011,6 1,5 0 0,0
14.10.2018 19:00:00 6,8 5,5 2 1 - - E 1011,2 45 0 0,0
14.10.2018 18:00:00 10,0 6,2 4 2 - - NNE 1010,3 50 30 0,0
14.10.2018 17:00:00 11,5 6,7 9 5 - - N 1009,7 50 54 0,0
14.10.2018 16:00:00 12,0 8,5 9 5 - - NNW 1009,2 30 12 0,0
14.10.2018 15:00:00 10,7 8,2 4 2 - - N 1008,5 40 0 0,0
14.10.2018 14:00:00 10,2 8,6 8 4 - - ENE 1008,7 35 0 0,0
14.10.2018 13:00:00 10,4 9,5 11 6 - - E 1008,8 19 0 0,6
14.10.2018 12:00:00 10,1 9,4 4 2 - - E 1009,4 15 0 1,6
14.10.2018 11:00:00 10,0 9,3 2 1 - - WNW 1009,1 9 0 0,8
14.10.2018 10:00:00 10,1 9,2 4 2 - - ENE 1008,2 13 0 0,6
14.10.2018 09:00:00 10,2 9,7 9 5 - - NNW 1007,8 15 0 0,4
14.10.2018 08:00:00 10,1 9,5 5 3 - - WNW 1007,6 21 0 0,0
14.10.2018 07:00:00 10,3 9,4 8 4 - - NNW 1007,3 35 0 0,0
14.10.2018 06:00:00 10,8 10,2 11 6 - - NNW 1006,6 2,1 0 0,4
14.10.2018 05:00:00 11,6 10,9 15 8 - - WNW 1006,3 2,0 0 0,0
14.10.2018 04:00:00 11,7 11,1 16 9 - - W 1005,2 7 0 0,6
14.10.2018 03:00:00 13,5 10,7 16 9 - - WSW 1004,5 3,8 0 0,0
14.10.2018 02:00:00 15,8 10,8 15 8 - - SSW 1003,6 40 0 0,0
14.10.2018 01:00:00 16,4 10,6 16 9 - - SSW 1003,0 50 - 0,0
14.10.2018 00:00:00 16,8 10,6 18 10 - - SW 1003,1 35 0 0,0
13.10.2018 23:00:00 17,8 12,8 11 6 - - SW 1002,8 35 0 0,0
13.10.2018 22:00:00 18,4 13,0 18 10 50 27 S 1002,1 30 0 0,0
13.10.2018 21:00:00 19,2 13,9 26 14 54 29 S 1001,5 28 0 0,0
13.10.2018 20:00:00 19,6 14,7 28 15 59 32 S 1000,7 22 0 0,0
13.10.2018 19:00:00 19,8 15,0 29 16 63 34 S 1000,0 30 0 0,0
13.10.2018 18:00:00 20,0 15,5 29 16 65 35 S 999,4 35 0 0,0
13.10.2018 17:00:00 20,9 14,8 31 17 61 33 S 999,3 30 0 0,0
13.10.2018 16:00:00 21,1 14,7 28 15 67 36 S 999,5 35 0 0,0
13.10.2018 15:00:00 21,5 15,0 35 19 68 37 S 1000,1 40 36 0,0
13.10.2018 14:00:00 20,8 15,7 34 18 70 38 S 1000,7 20 0 0,0
13.10.2018 13:00:00 20,6 16,5 34 18 57 31 S 1000,8 25 0 0,0
13.10.2018 12:00:00 20,0 17,1 31 17 65 35 S 1001,1 35 0 0,2
13.10.2018 11:00:00 19,5 16,9 35 19 59 32 S 1001,0 30 0 0,0
13.10.2018 10:00:00 18,6 17,1 31 17 54 29 S 1001,3 18 0 0,2
13.10.2018 09:00:00 18,2 17,1 31 17 50 27 SSE 1001,4 18 0 0,2
13.10.2018 08:00:00 18,3 17,1 24 13 - - S 1002,1 35 0 0,2
13.10.2018 07:00:00 15,5 15,2 5 3 - - SE 1002,6 35 0 0,8
13.10.2018 06:00:00 15,6 15,2 11 6 - - S 1003,4 7 0 1,4
13.10.2018 05:00:00 16,0 15,6 13 7 - - SSE 1003,7 10 0 0,6
13.10.2018 04:00:00 16,6 16,1 9 5 - - S 1004,0 7 0 1,2
13.10.2018 03:00:00 17,1 16,4 11 6 - - S 1004,0 13 0 1,0
13.10.2018 02:00:00 17,5 16,9 15 8 - - S 1004,2 11 0 2,8
13.10.2018 01:00:00 17,5 16,7 16 9 - - S 1004,0 8 - 1,2
13.10.2018 00:00:00 17,5 16,6 21 11 - - S 1003,7 10 0 1,8
12.10.2018 23:00:00 17,6 16,2 26 14 52 28 S 1003,3 12 0 0,2
12.10.2018 22:00:00 18,5 15,7 29 16 61 33 S 1002,3 45 0 0,0
12.10.2018 21:00:00 18,6 15,5 31 17 55 30 S 1001,7 35 0 0,0
12.10.2018 20:00:00 18,8 15,2 31 17 63 34 S 1000,9 40 0 0,0
12.10.2018 19:00:00 18,7 15,3 31 17 67 36 S 1000,2 35 0 0,2
12.10.2018 18:00:00 18,9 15,0 39 21 65 35 S 999,3 35 0 0,0
12.10.2018 17:00:00 18,7 14,9 34 18 61 33 S 999,0 30 0 0,0
12.10.2018 16:00:00 18,0 14,5 35 19 67 36 S 998,9 27 0 0,0
12.10.2018 15:00:00 17,3 14,3 39 21 74 40 S 998,3 19 0 0,0
12.10.2018 14:00:00 16,8 14,5 42 23 72 39 S 998,7 35 0 0,8
12.10.2018 13:00:00 16,0 14,2 39 21 72 39 S 999,2 25 0 0,8
12.10.2018 12:00:00 15,5 14,1 34 18 55 30 S 999,7 11 0 1,6
12.10.2018 11:00:00 15,8 13,7 29 16 54 29 S 1000,7 40 0 0,0
12.10.2018 10:00:00 16,2 13,0 34 18 55 30 S 1000,4 45 0 0,0
12.10.2018 09:00:00 15,5 12,4 35 19 70 38 S 1000,5 16 0 0,0
12.10.2018 08:00:00 14,8 11,6 31 17 55 30 S 1000,1 40 0 0,0
12.10.2018 07:00:00 14,1 11,1 29 16 59 32 S 999,6 22 0 0,2
12.10.2018 06:00:00 13,5 10,5 34 18 55 30 S 999,7 22 0 0,0
12.10.2018 05:00:00 12,8 10,3 29 16 48 26 S 1000,7 21 0 0,0
12.10.2018 04:00:00 12,6 10,5 28 15 48 26 S 1000,7 30 0 0,0
12.10.2018 03:00:00 12,1 11,0 18 10 - - S 1002,2 19 0 0,0
12.10.2018 02:00:00 10,1 9,9 15 8 - - SSE 1002,8 29 0 0,0
12.10.2018 01:00:00 8,8 8,7 8 4 - - SSE 1003,7 14 - 0,2
12.10.2018 00:00:00 8,0 7,7 8 4 - - S 1003,8 12 0 0,0
11.10.2018 23:00:00 8,4 8,1 4 2 - - S 1003,8 0,2 0 0,0
11.10.2018 22:00:00 9,2 8,9 8 4 - - SE 1003,3 0,6 0 0,0
11.10.2018 21:00:00 10,4 10,0 2 1 - - E 1002,9 4,5 0 0,0
11.10.2018 20:00:00 11,0 10,5 5 3 - - SW 1002,3 28 0 0,0
11.10.2018 19:00:00 11,5 10,7 8 4 46 25 NNW 1001,1 16 0 2,2
11.10.2018 18:00:00 17,8 12,6 22 12 54 29 S 999,3 35 0 0,0
11.10.2018 17:00:00 18,4 12,3 24 13 - - S 998,8 27 0 0,0
11.10.2018 16:00:00 17,6 12,5 22 12 46 25 SSE 998,4 26 0 0,0
11.10.2018 15:00:00 17,4 12,7 21 11 - - SE 998,2 24 0 0,0
11.10.2018 14:00:00 16,4 12,6 13 7 - - SSE 999,1 30 0 0,0
11.10.2018 13:00:00 15,9 12,4 18 10 - - SSE 999,9 20 0 0,0
11.10.2018 12:00:00 17,4 11,8 24 13 54 29 S 1000,0 40 18 0,0
11.10.2018 11:00:00 17,9 12,4 22 12 - - S 999,4 30 36 0,0
11.10.2018 10:00:00 16,8 13,4 22 12 - - SSE 999,7 18 24 0,0
11.10.2018 09:00:00 15,8 13,3 22 12 - - S 1000,0 12 0 0,0
11.10.2018 08:00:00 15,2 13,1 16 9 - - SSE 999,6 9 0 0,0
11.10.2018 07:00:00 14,8 13,0 16 9 - - SSE 999,7 7 0 0,0
11.10.2018 06:00:00 15,2 12,9 21 11 - - SSE 1000,0 6 0 0,0
11.10.2018 05:00:00 15,9 13,1 22 12 - - SSE 1000,2 6 0 0,0

tt = temperature
td = dewpoint
ff = wind speed
fx = gusts
dd = wind direction
ppp = reduced air pressure
vv = visibility
sd = sunshine duration
rr = precipitation

Next stations